EW8748 Weather Reports


Display with metric or nautical units.
time (UTC)temp
F
wind
direction
speed
MPH
gust
MPH
rain 1hr
in
rain 24hr
in
rain mn
in
humidity
%
barometer
mb
20260505055515 56 296 5.0 7.0 0.00 0.00 0.00 76 1018.1
20260505055023 55 283 2.0 3.0 0.00 0.00 0.00 74 1018.0
20260505054023 55 289 2.0 3.0 0.00 0.00 0.00 75 1018.1
20260505053023 54 303 3.0 6.0 0.00 0.00 0.00 76 1018.0
20260505052515 54 280 3.0 6.0 0.00 0.00 0.00 77 1018.0
20260505050515 53 294 3.0 8.0 0.00 0.00 0.00 78 1018.1
20260505041024 52 254 3.0 7.0 0.00 0.00 0.00 76 1017.4
20260505040515 52 268 3.0 6.0 0.00 0.00 0.00 75 1017.4
20260505035023 53 299 2.0 3.0 0.00 0.00 0.00 72 1017.3
20260505032515 53 260 2.0 3.0 0.00 0.00 0.00 72 1017.4
20260505032021 53 272 3.0 3.0 0.00 0.00 0.00 73 1017.4
20260505031022 52 286 3.0 5.0 0.00 0.00 0.00 76 1017.4
20260505023022 53 314 2.0 6.0 0.00 0.00 0.00 77 1017.4
20260505022515 53 283 3.0 6.0 0.00 0.00 0.00 78 1017.4
20260505020515 52 272 2.0 3.0 0.00 0.00 0.00 79 1017.9
20260505020016 52 272 3.0 6.0 0.00 0.00 0.00 79 1017.8
20260505015514 52 270 3.0 6.0 0.00 0.00 0.00 79 1017.8
20260505015022 52 283 2.0 6.0 0.00 0.00 0.00 78 1017.9
20260505014519 52 314 3.0 3.0 0.00 0.00 0.00 78 1017.9
20260505012515 53 278 3.0 5.0 0.00 0.00 0.00 78 1017.9
20260505012021 53 272 3.0 6.0 0.00 0.00 0.00 78 1018.0
20260505011021 53 314 2.0 3.0 0.00 0.00 0.00 78 1017.9
20260505010015 53 281 3.0 6.0 0.00 0.00 0.00 78 1018.0
20260505005021 53 264 2.0 6.0 0.00 0.00 0.00 79 1018.0
20260505003515 53 283 3.0 7.0 0.00 0.00 0.00 79 1018.2
20260505002515 54 310 4.0 7.0 0.00 0.00 0.00 78 1018.2
20260505002021 54 264 4.0 7.0 0.00 0.00 0.00 77 1018.3
20260505000015 54 276 3.0 7.0 0.00 0.00 0.00 77 1018.6
20260504235515 54 296 3.0 8.0 0.00 0.00 0.00 77 1018.6
20260504235021 54 278 3.0 9.0 0.00 0.00 0.00 77 1018.7
20260504234515 54 283 3.0 6.0 0.00 0.00 0.00 78 1018.7
20260504234021 54 275 1.0 3.0 0.00 0.00 0.00 78 1018.8
20260504233514 54 289 4.0 7.0 0.00 0.00 0.00 78 1019.0
20260504233022 54 270 4.0 7.0 0.00 0.00 0.00 78 1019.0
20260504232514 54 273 4.0 8.0 0.00 0.00 0.00 78 1019.1
20260504231515 55 254 3.0 8.0 0.00 0.00 0.00 77 1019.3
20260504230514 55 280 5.0 7.0 0.00 0.00 0.00 76 1019.3
20260504230014 55 294 3.0 6.0 0.00 0.00 0.00 76 1019.3
20260504225514 55 266 3.0 6.0 0.00 0.00 0.00 75 1019.4
20260504224021 55 280 2.0 6.0 0.00 0.00 0.00 75 1019.5
20260504223515 55 287 5.0 8.0 0.00 0.00 0.00 75 1019.6
20260504222516 55 272 5.0 9.0 0.00 0.00 0.00 74 1019.7
20260504215514 55 297 6.0 10.0 0.00 0.00 0.00 73 1019.9
20260504214021 55 220 6.0 9.0 0.00 0.00 0.00 74 1020.0
20260504213515 55 300 6.0 9.0 0.00 0.00 0.00 74 1020.0
20260504213021 55 302 3.0 7.0 0.00 0.00 0.00 74 1020.0
20260504212021 55 295 6.0 9.0 0.00 0.00 0.00 74 1020.0
20260504211021 55 292 5.0 9.0 0.00 0.00 0.00 75 1020.1
20260504210015 55 260 7.0 10.0 0.00 0.00 0.00 74 1020.2
20260504205514 55 275 6.0 10.0 0.00 0.00 0.00 75 1020.1
20260504204515 55 247 5.0 12.0 0.00 0.00 0.00 76 1020.1
20260504204021 55 274 7.0 12.0 0.00 0.00 0.00 76 1020.2
20260504201515 55 283 6.0 12.0 0.00 0.00 0.00 78 1020.2
20260504201023 55 289 6.0 9.0 0.00 0.00 0.00 78 1020.1
20260504200514 55 276 6.0 10.0 0.00 0.00 0.00 78 1020.0
20260504194022 55 322 5.0 9.0 0.00 0.00 0.00 78 1020.0
20260504191514 55 299 7.0 12.0 0.00 0.00 0.00 78 1020.0
20260504190530 55 301 5.0 8.0 0.00 0.00 0.00 77 1019.9
20260504185022 55 290 6.0 12.0 0.00 0.00 0.00 77 1019.9
20260504184514 55 302 6.0 10.0 0.00 0.00 0.00 77 1019.8
20260504183515 56 306 7.0 12.0 0.00 0.00 0.00 76 1019.7
20260504182515 56 292 6.0 13.0 0.00 0.00 0.00 76 1019.7
20260504180514 57 278 6.0 12.0 0.00 0.00 0.00 72 1019.4
20260504174514 58 262 6.0 12.0 0.00 0.00 0.00 69 1019.2
20260504173023 59 310 9.0 15.0 0.00 0.00 0.00 67 1019.1
20260504172022 59 266 7.0 13.0 0.00 0.00 0.00 66 1019.0
20260504171514 59 267 7.0 15.0 0.00 0.00 0.00 66 1019.0
20260504171022 60 272 9.0 15.0 0.00 0.00 0.00 65 1018.9
20260504170514 60 256 7.0 15.0 0.00 0.00 0.00 65 1018.9
20260504141022 65 251 8.0 17.0 0.00 0.00 0.00 58 1019.4
20260504140514 65 239 9.0 16.0 0.00 0.00 0.00 57 1019.5
20260504081021 61 333 3.0 8.0 0.00 0.00 0.00 54 1021.5